Regional Weather Roundup
Issued by NWS

Home | Current Version | Previous Version | Text Only | Print | Product List | Glossary Off
Versions: 1 2 3 4 5 6 7 8 9 10 11 12 13 14 15 16 17 18 19 20 21 22 23 24 25 26 27 28 29 30 31 32 33 34 35 36 37 38 39 40 41 42 43 44 45 46 47 48 49 50

000
ASUS43 KDTX 230910
RWRMI
MICHIGAN HOURLY REGIONAL WEATHER ROUNDUP
NATIONAL WEATHER SERVICE DETROIT/PONTIAC MI
500 AM EDT TUE SEP 23 2014

NOTE: "FAIR" INDICATES FEW OR NO CLOUDS BELOW 12,000 FEET WITH NO
SIGNIFICANT WEATHER AND/OR OBSTRUCTION TO VISIBILITY.

MIZ047>049-052>055-059>063-066>070-074>076-081>083-231000-
SOUTHEAST LOWER MICHIGAN

CITY           SKY/WX    TMP DP  RH WIND       PRES   REMARKS
ADRIAN         CLEAR     43  41  93 CALM      30.30R
ALMA           CLEAR     45  44  95 SW3       30.28R
ANN ARBOR      PTCLDY    37  35  92 CALM      30.29R
BAD AXE        CLEAR     44  44 100 S3        30.27R
DETROIT CITY   CLEAR     49  43  80 CALM      30.30R
DETROIT        CLEAR     48  44  86 CALM      30.30R
FLINT          CLEAR     45  42  89 S3        30.29R
GROSSE ILE     CLEAR     48  45  87 CALM      30.28S
HILLSDALE      CLEAR     40  40 100 CALM      30.29S FOG
HOWELL         CLEAR     44  43  97 CALM      30.29R

CITY           SKY/WX    TMP DP  RH WIND       PRES   REMARKS
JACKSON        CLEAR     42  40  92 CALM      30.29S
LAMBERTVILLE   CLEAR     43  41  93 CALM      30.30R FOG
LANSING        CLEAR     46  43  89 CALM      30.29R
LAPEER         NOT AVBL
MASON          CLEAR     43  42  97 CALM      30.29R
MONROE         CLEAR     43  43 100 CALM      30.28S
MT. CLEMENS    CLEAR     47  47  99 W3        30.26R
PONTIAC        CLEAR     44  41  89 CALM      30.28R
PORT HOPE        N/A     51  47  86 SW9       30.23R
PORT HURON     CLEAR     41  41 100 S5        30.28R FOG
TRI CITIES     CLEAR     49  45  86 SW8       30.28R
YPSILANTI      CLEAR     48  43  82 CALM      30.30R
$$
MIZ043>046-050>051-056>058-064>065-071>073-077>080-231000-
SOUTHWEST LOWER MICHIGAN

CITY           SKY/WX    TMP DP  RH WIND       PRES   REMARKS
BATTLE CREEK   CLEAR     45  42  89 S3        30.29S
BENTON HARBOR  CLEAR     43  42  97 CALM      30.29R
BIG RAPIDS     CLEAR     44  44 100 CALM      30.26R FOG
COLDWATER      CLEAR     43  42  97 CALM      30.29S
HOLLAND        CLEAR     48  43  82 S3        30.28R
GRAND RAPIDS   CLEAR     46  43  89 SE3       30.28R
KALAMAZOO      CLEAR     44  43  96 CALM      30.29R FOG
MARSHALL       CLEAR     40  40  98 S6        30.29R FOG
MUSKEGON       CLEAR     55  52  89 S3        30.27R
$$
MIZ016>042-231000-
NORTHERN LOWER MICHIGAN

CITY           SKY/WX    TMP DP  RH WIND       PRES   REMARKS
ALPENA         CLEAR     51  46  83 SW8       30.18S
BEAVER ISLAND  CLEAR     57  55  92 SW9       30.17R
BELLAIRE       CLEAR     45  44  95 CALM      30.22R
CADILLAC       CLEAR     39  39 100 CALM      30.24R FOG
CHARLEVOIX     CLEAR     54  53  95 S7        30.21S
FRANKFORT      SUNNY     52  50  90 CALM      30.22R FOG
GAYLORD        CLEAR     46  44  93 SW6       30.21R
GRAYLING       CLEAR     40  40 100 CALM      30.23S FOG
HARBOR SPRINGS CLEAR     54  50  86 SW5       30.19R
HOUGHTON LAKE  CLEAR     50  46  86 SW8       30.24S
MANISTEE       PTCLDY    43  39  87 E3        30.24S
OSCODA         CLEAR     48  45  91 SW7       30.21S
PELLSTON       CLEAR     55  51  86 W7        30.17S
TRAVERSE CITY  CLEAR     50  48  93 CALM      30.21R
$$
MIZ007>008-015-231000-
EASTERN UPPER MICHIGAN

CITY           SKY/WX    TMP DP  RH WIND       PRES   REMARKS
KINROSS        CLEAR     52  52 100 SW3       30.13R
MACKINAC ISLAN CLEAR     56  55  93 SW6       30.15R
NEWBERRY       CLEAR     51  48  89 SW8       30.13R
S. S. MARIE    CLEAR     50  47  89 SW5       30.12R
$$
MIZ004>006-011>014-085-231000-
CENTRAL UPPER MICHIGAN

CITY           SKY/WX    TMP DP  RH WIND       PRES   REMARKS
MANISTIQUE     CLEAR     53  49  89 W5        30.14S
ESCANABA       CLEAR     48  46  93 W8        30.17R
MENOMINEE      CLEAR     52  46  82 W3        30.19R
SAWYER-GWINN   CLEAR     50  47  88 SW6       30.16R
$$
MIZ001>003-009>011-084-231000-
WESTERN UPPER MICHIGAN

CITY           SKY/WX    TMP DP  RH WIND       PRES   REMARKS
IRON MOUNTAIN  CLEAR     50  47  89 N3        30.18R
HOUGHTON       CLEAR     57  49  74 W14       30.14R
COPPER HARBOR    N/A     62  49  62 NW6       30.10R
IRONWOOD       CLEAR     48  48 100 CALM      30.17R
$$

ABBREVIATIONS USED IN REMARKS
   TC - TEMPERATURE IN CELSIUS
  WCI - WIND CHILL INDEX
   HX - HEAT INDEX
  VSB - VISIBILITY



USA.gov is the U.S. government's official web portal to all federal, state and local government web resources and services.